Location: Vanderbilt Beach
(26.2700°N, 81.7900°W)
Time: 02:26:49
(UTC-05:00)

SO-50 - Visible Passes

Search period start: 02 December 2020 00:00
Search period end: 12 December 2020 00:00
Orbit: 621 x 664 km, 64.6° (Epoch: 01 December)

Date Brightness Start Highest point End Pass type
(mag) Time Alt. Az. Time Alt. Az. Time Alt. Az.
08 Dec ? 19:52:18 10° NW 19:53:27 18° NW 19:53:27 18° NW visible
09 Dec ? 18:37:26 10° N 18:41:17 27° ENE 18:42:45 22° E visible
09 Dec ? 20:18:11 10° WNW 20:20:38 19° W 20:20:38 19° W visible
10 Dec ? 19:01:46 10° NNW 19:06:17 80° ENE 19:10:48 10° SSE visible
11 Dec ? 19:27:03 10° NW 19:31:05 32° WSW 19:35:08 10° S visible
